Location: Ermatingen
(47.6706°N, 9.0857°E)
Time: 15:31:51
(UTC+00:00)

Envisat - Visible Passes

Search period start: 30 January 2023 00:00
Search period end: 09 February 2023 00:00
Orbit: 763 x 765 km, 98.2° (Epoch: 30 January)

Date Brightness Start Highest point End Pass type
(mag) Time Alt. Az. Time Alt. Az. Time Alt. Az.
30 Jan 5.2 03:14:04 10° NNE 03:15:26 18° NNE 03:15:26 18° NNE visible
30 Jan 4.6 04:53:40 10° N 04:55:37 19° NNW 04:55:37 19° NNW visible
31 Jan 5.8 02:37:34 10° NE 02:38:05 12° NE 02:38:05 12° NE visible
31 Jan 4.5 04:16:07 10° N 04:18:16 24° N 04:18:16 24° N visible
01 Feb 4.7 03:38:56 10° NNE 03:40:56 24° NNE 03:40:56 24° NNE visible
01 Feb 4.7 05:19:21 10° NNW 05:21:08 15° NW 05:21:08 15° NW visible
02 Feb 5.3 03:02:06 10° NNE 03:03:36 19° NE 03:03:36 19° NE visible
02 Feb 4.4 04:41:23 10° N 04:43:47 23° NNW 04:43:47 23° NNW visible
03 Feb 5.9 02:25:50 10° NE 02:26:16 12° NE 02:26:16 12° NE visible
03 Feb 4.3 04:03:57 10° N 04:06:27 29° N 04:06:27 29° N visible
03 Feb 4.9 05:46:18 10° NW 05:46:39 10° NW 05:46:39 10° NW visible
04 Feb 4.7 03:26:52 10° NNE 03:29:07 26° NNE 03:29:07 26° NNE visible
04 Feb 4.5 05:06:53 10° NNW 05:09:19 18° NW 05:09:19 18° NW visible
05 Feb 5.4 02:50:11 10° NNE 02:51:47 19° NE 02:51:47 19° NE visible
05 Feb 4.1 04:29:09 10° N 04:31:59 28° NNW 04:31:59 28° NNW visible
06 Feb 6.0 02:14:15 10° NE 02:14:28 11° NE 02:14:28 11° NE visible
06 Feb 4.1 03:51:49 10° N 03:54:39 34° N 03:54:39 34° N visible
06 Feb 4.8 05:32:53 10° NNW 05:34:51 13° NW 05:34:51 13° NW visible
07 Feb 4.7 03:14:51 10° NNE 03:17:19 28° NE 03:17:19 28° NE visible
07 Feb 4.3 04:54:30 10° N 04:57:31 22° NW 04:57:31 22° NW visible
08 Feb 5.5 02:38:20 10° NE 02:40:00 18° NE 02:40:00 18° NE visible
08 Feb 3.9 04:16:55 10° N 04:20:11 35° NNW 04:20:11 35° NNW visible
